Location: ?????????
(38.5999°N, 22.7695°E)
Time: 07:54:02
(UTC+00:00)

PAYLOAD A - Pass Details

Date: 08 August 2024
Orbit: 690 x 831 km, 98.5° (Epoch: 08 September)

Event Time Altitude Azimuth Distance (km) Brightness Sun altitude
Rises 02:56:10 0° 3° (N) 3,235 7.7 -8.1°
Reaches altitude 10° 02:58:40 10° 355° (N) 2,282 6.8 -7.7°
Maximum altitude 03:03:10 34° 291° (WNW) 1,189 4.7 -6.9°
Drops below altitude 10° 03:07:29 10° 227° (SW) 2,193 5.8 -6.1°
Enters shadow 03:08:39 - 222° (SW) 2,627 6.2 -5.9°
